Tracking 31027 objects as of 19-Jul-2025
HD Live streaming from Space Station
objects crossing your sky now

STARLINK-31428

Track STARLINK-31428 now!
10-day predictions
STARLINK-31428 is classified as:


NORAD ID: 59367
Int'l Code: 2024-060V
Perigee: 489.3 km
Apogee: 491.1 km
Inclination: 43.0 °
Period: 94.3 minutes
Semi major axis: 6861 km
RCS: Unknown
Launch date: March 31, 2024
Source: United States (US)
Launch site: AIR FORCE EASTERN TEST RANGE (AFETR)
Your satellite tracking list
ATLAS 5 CENTAUR DEB
Track 1 satellite(s)




NASA's NSSDC Master Catalog

Two Line Element Set (TLE):
1 59367U 24060V   25199.53218460 -.00001203  00000-0 -34219-4 0  9998
2 59367  43.0004 142.0616 0001268 268.2841  91.7865 15.27578084 74252
Source of the keplerian elements: AFSPC